Flag for Canada Weather past 2 weeks in Stonewall, Manitoba, Canada

10 °F

Light snow. Partly sunny.

Feels Like: 0 °F
Forecast: 0 / 12 °F
Wind: 7 mph from Northwest

Location: Winnipeg Int. Airportman.

Current Time: Nov 26, 2015 at 8:55:03 AM

Latest Report: Nov 26, 2015 at 8:00 AM

Visibility: 15 mi

Pressure: 30.55 "Hg

Humidity: 85%

Dew point: 7 °F

Location of StonewallLocation

Historic Weather in Stonewall — Graph


Stonewall temperature yesterday

Maximum temperature yesterday: 30 °F (at 12:00 AM)
Minimum temperature yesterday: 16 °F (at 10:00 PM)
Average temperature yesterday: 24 °F

Past Weeks' High & Low Weather Summary

High55 °F (Nov 15, 2:00 PM)100% (Nov 11, 9:00 AM)30.53 "Hg (Nov 11, 9:00 AM)
Low5 °F (Nov 21, 5:00 AM)54% (Nov 14, 3:00 PM)28.97 "Hg (Nov 18, 4:00 PM)
Average30 °F85%29.86 "Hg
* Reported Nov 11 7:00 AM — Nov 26 7:00 AM, Stonewall, Weather by CustomWeather, © 2015

Note: Actual official high and low records may vary slightly from our data, if they occured in-between our weather recording intervals... More about our weather records


Stonewall weather history for previous 24 hours

Time TempWeatherWind HumidityBarometerVisibility
7:00 AM
Thu, Nov 26
12 °FLight snow. Passing clouds.8 mph79%30.53 "Hg15 mi
6:00 AM12 °FLight snow. Passing clouds.10 mph85%30.51 "Hg15 mi
5:00 AM14 °FLight snow. Overcast.8 mph85%30.49 "Hg10 mi
4:00 AM14 °FLight snow. Overcast.8 mph85%30.48 "Hg15 mi
3:00 AM16 °FLight snow. Overcast.6 mph79%30.47 "Hg10 mi
2:00 AM16 °FLight snow. Overcast.14 mph79%30.44 "Hg10 mi
1:00 AM16 °FLight snow. Overcast.15 mph79%30.42 "Hg10 mi
12:00 AM16 °FLight snow. Overcast.15 mph79%30.40 "Hg6 mi
11:00 PM
Wed, Nov 25
16 °FLight snow. Overcast.16 mph79%30.39 "Hg4 mi
10:00 PM16 °FLight snow. Overcast.14 mph86%30.36 "Hg4 mi
9:00 PM18 °FLight snow. Overcast.12 mph79%30.34 "Hg4 mi
8:00 PM18 °FLight snow. Overcast.10 mph79%30.32 "Hg15 mi
7:00 PM18 °FLight snow. Mostly cloudy.13 mph86%30.29 "Hg12 mi
6:00 PM19 °FLight snow. Mostly cloudy.16 mph79%30.26 "Hg10 mi
5:00 PM21 °FOvercast.17 mph74%30.22 "Hg15 mi
4:00 PM21 °FLight snow. Overcast.16 mph80%30.19 "Hg15 mi
3:00 PM21 °FLight snow. Overcast.22 mph86%30.14 "Hg15 mi
2:00 PM23 °FLight snow. Overcast.18 mph80%30.12 "Hg15 mi
1:00 PM23 °FLight snow. Mostly cloudy.22 mph86%30.09 "Hg15 mi
12:00 PM25 °FBroken clouds.23 mph80%30.07 "Hg15 mi
11:00 AM23 °FLight snow. Cloudy.20 mph86%30.05 "Hg3 mi
10:49 AM23 °FLight snow. Cloudy.17 mph86%30.04 "Hg3 mi
10:00 AM23 °FLight snow. Mostly cloudy.20 mph93%30.02 "Hg2 mi
9:00 AM25 °FLight snow. Overcast.15 mph93%30.00 "Hg12 mi
8:00 AM25 °FLow clouds.17 mph100%29.97 "Hg15 mi
Weather by CustomWeather, © 2015

See weather overviewHow to use our weather pages